Skip Page Navigation
NASA JPL Caltech
NASA Logo - Jet Propulsion Laboratory + View the NASA Portal
+ Center for Near-Earth Object Studies
JPL Home Earth Solar System Stars & Galaxies Technology
JPL Solar System Dynamics
BODIES ORBITS EPHEMERIDES TOOLS PHYSICAL DATA DISCOVERY FAQ SITE MAP
JPL Small-Body Database Browser
Search: [ help ]  
173101 (2007 TV320)
Classification: Main-belt Asteroid          SPK-ID: 2173101
Ephemeris | Orbit Diagram | Orbital Elements | Mission Design | Physical Parameters | Discovery Circumstances ]

[ show orbit diagram ]
Orbital Elements at Epoch 2459000.5 (2020-May-31.0) TDB
Reference: JPL 12 (heliocentric ecliptic J2000)
 Element Value Uncertainty (1-sigma)   Units 
e .07659582284911343 5.8317e-08  
a 2.86316048436668 3.1284e-08 au
q 2.643854351117548 1.7898e-07 au
i 7.366981364726867 5.8475e-06 deg
node 104.7148359287459 5.2769e-05 deg
peri 291.6138623832013 6.9344e-05 deg
M 223.781206555362 4.8024e-05 deg
tp 2459670.078488460382
(2022-Mar-31.57848846)
0.00024205 TDB
period 1769.566810498172
4.84
2.9002e-05
7.94e-08
d
yr
n .2034396202868724 3.3342e-09 deg/d
Q 3.082466617615812 3.368e-08 au
  Orbit Determination Parameters
   # obs. used (total)      254  
   data-arc span      6041 days (16.54 yr)  
   first obs. used      2002-10-09  
   last obs. used      2019-04-24  
   planetary ephem.      DE431  
   SB-pert. ephem.      SB431-N16  
   condition code      0  
   norm. resid. RMS      .62468  
   source      ORB  
   producer      Otto Matic  
   solution date      2019-Jul-14 09:47:38  

Additional Information
 Earth MOID = 1.66246 au 
 Jupiter MOID = 2.25024 au 
 T_jup = 3.284 
[ show covariance matrix ]

Ephemeris | Orbit Diagram | Orbital Elements | Mission Design | Physical Parameters | Discovery Circumstances ]

Physical Parameter Table
Parameter Symbol Value Units Sigma Reference Notes
absolute magnitude H 15.8   n/a MPO433111  

173101 (2007 TV320)          Discovered 2007-Oct-13 by CSS at Catalina
Reference: 20071224/Numbers.arcLast Updated: 2007-12-22

Alternate Designations
 2007 TV320 = 2004 CY61 
Ephemeris | Orbit Diagram | Orbital Elements | Mission Design | Physical Parameters | Discovery Circumstances ]
ABOUT SSD CREDITS/AWARDS PRIVACY/COPYRIGHT GLOSSARY LINKS
FirstGov 2020-Aug-03 13:38 UT
(server date/time)  
NASA Home Page
Site Manager:   Ryan S. Park
Webmaster  Alan B. Chamberlin